owner,sensor,date,latitude,longitude,sea_water_turbidity,qcFlag 
SCCF RECON,ioos:station:SCCF:11:1,2011-04-01T00:00:00Z,26.4679,-82.0631,10.41,1111122 
SCCF RECON,ioos:station:SCCF:11:1,2011-04-01T01:00:00Z,26.4679,-82.0631,14.16,1111122 
SCCF RECON,ioos:station:SCCF:11:1,2011-04-01T02:00:00Z,26.4679,-82.0631,10.96,1111122 
SCCF RECON,ioos:station:SCCF:11:1,2011-04-01T03:00:00Z,26.4679,-82.0631,9.79,1111122 
SCCF RECON,ioos:station:SCCF:11:1,2011-04-01T04:00:00Z,26.4679,-82.0631,8.47,1111122 
SCCF RECON,ioos:station:SCCF:11:1,2011-04-01T05:00:00Z,26.4679,-82.0631,8.62,1111122 
SCCF RECON,ioos:station:SCCF:11:1,2011-04-01T06:00:00Z,26.4679,-82.0631,7.91,1111122 
SCCF RECON,ioos:station:SCCF:11:1,2011-04-01T07:00:00Z,26.4679,-82.0631,7.08,1111122 
SCCF RECON,ioos:station:SCCF:11:1,2011-04-01T08:00:00Z,26.4679,-82.0631,7.26,1111122 
SCCF RECON,ioos:station:SCCF:11:1,2011-04-01T09:00:00Z,26.4679,-82.0631,7.02,1111122 
SCCF RECON,ioos:station:SCCF:11:1,2011-04-01T10:00:00Z,26.4679,-82.0631,7.06,1111122 
SCCF RECON,ioos:station:SCCF:11:1,2011-04-01T11:00:00Z,26.4679,-82.0631,6.71,1111122 
SCCF RECON,ioos:station:SCCF:11:1,2011-04-01T12:00:00Z,26.4679,-82.0631,6.92,1111122 
SCCF RECON,ioos:station:SCCF:11:1,2011-04-01T13:00:00Z,26.4679,-82.0631,7.85,1111122 
SCCF RECON,ioos:station:SCCF:11:1,2011-04-01T14:00:00Z,26.4679,-82.0631,7.41,1111122 
SCCF RECON,ioos:station:SCCF:11:1,2011-04-01T15:00:00Z,26.4679,-82.0631,7.93,1111122 
SCCF RECON,ioos:station:SCCF:11:1,2011-04-01T16:00:00Z,26.4679,-82.0631,7.31,1111122 
SCCF RECON,ioos:station:SCCF:11:1,2011-04-01T17:00:00Z,26.4679,-82.0631,7.96,1111122 
SCCF RECON,ioos:station:SCCF:11:1,2011-04-01T18:00:00Z,26.4679,-82.0631,6.39,1111122 
SCCF RECON,ioos:station:SCCF:11:1,2011-04-01T19:00:00Z,26.4679,-82.0631,6.38,1111122 
SCCF RECON,ioos:station:SCCF:11:1,2011-04-01T20:00:00Z,26.4679,-82.0631,6.8,1111122 
SCCF RECON,ioos:station:SCCF:11:1,2011-04-01T21:00:00Z,26.4679,-82.0631,7.54,1111122 
SCCF RECON,ioos:station:SCCF:11:1,2011-04-01T22:00:00Z,26.4679,-82.0631,8.86,1111122 
SCCF RECON,ioos:station:SCCF:11:1,2011-04-01T23:00:00Z,26.4679,-82.0631,9.0,1111122 
SCCF RECON,ioos:station:SCCF:11:1,2011-04-02T00:00:00Z,26.4679,-82.0631,8.9,1111122 
SCCF RECON,ioos:station:SCCF:11:1,2011-04-02T01:00:00Z,26.4679,-82.0631,8.02,1111122 
SCCF RECON,ioos:station:SCCF:11:1,2011-04-02T02:00:00Z,26.4679,-82.0631,9.45,1111122 
SCCF RECON,ioos:station:SCCF:11:1,2011-04-02T03:00:00Z,26.4679,-82.0631,10.36,1111122 
SCCF RECON,ioos:station:SCCF:11:1,2011-04-02T04:00:00Z,26.4679,-82.0631,10.68,1111122 
SCCF RECON,ioos:station:SCCF:11:1,2011-04-02T05:00:00Z,26.4679,-82.0631,9.6,1111122 
SCCF RECON,ioos:station:SCCF:11:1,2011-04-02T06:00:00Z,26.4679,-82.0631,8.92,1111122 
SCCF RECON,ioos:station:SCCF:11:1,2011-04-02T07:00:00Z,26.4679,-82.0631,8.84,1111122 
SCCF RECON,ioos:station:SCCF:11:1,2011-04-02T08:00:00Z,26.4679,-82.0631,7.22,1111122 
SCCF RECON,ioos:station:SCCF:11:1,2011-04-02T09:00:00Z,26.4679,-82.0631,6.92,1111122 
SCCF RECON,ioos:station:SCCF:11:1,2011-04-02T10:00:00Z,26.4679,-82.0631,6.79,1111122 
SCCF RECON,ioos:station:SCCF:11:1,2011-04-02T11:00:00Z,26.4679,-82.0631,6.34,1111122 
SCCF RECON,ioos:station:SCCF:11:1,2011-04-02T12:00:00Z,26.4679,-82.0631,6.16,1111122 
SCCF RECON,ioos:station:SCCF:11:1,2011-04-02T13:00:00Z,26.4679,-82.0631,6.49,1111122 
SCCF RECON,ioos:station:SCCF:11:1,2011-04-02T14:00:00Z,26.4679,-82.0631,10.08,1111122 
SCCF RECON,ioos:station:SCCF:11:1,2011-04-02T15:00:00Z,26.4679,-82.0631,9.06,1111122 
SCCF RECON,ioos:station:SCCF:11:1,2011-04-02T16:00:00Z,26.4679,-82.0631,9.03,1111122 
SCCF RECON,ioos:station:SCCF:11:1,2011-04-02T17:00:00Z,26.4679,-82.0631,6.45,1111122 
SCCF RECON,ioos:station:SCCF:11:1,2011-04-02T18:00:00Z,26.4679,-82.0631,5.95,1111122 
SCCF RECON,ioos:station:SCCF:11:1,2011-04-02T19:00:00Z,26.4679,-82.0631,5.87,1111122 
SCCF RECON,ioos:station:SCCF:11:1,2011-04-02T20:00:00Z,26.4679,-82.0631,7.04,1111122 
SCCF RECON,ioos:station:SCCF:11:1,2011-04-02T21:00:00Z,26.4679,-82.0631,7.15,1111122 
SCCF RECON,ioos:station:SCCF:11:1,2011-04-02T22:00:00Z,26.4679,-82.0631,7.54,1111122 
SCCF RECON,ioos:station:SCCF:11:1,2011-04-02T23:00:00Z,26.4679,-82.0631,8.61,1111122 
SCCF RECON,ioos:station:SCCF:11:1,2011-04-03T00:00:00Z,26.4679,-82.0631,8.41,1111122 
SCCF RECON,ioos:station:SCCF:11:1,2011-04-03T01:00:00Z,26.4679,-82.0631,8.11,1111122 
SCCF RECON,ioos:station:SCCF:11:1,2011-04-03T02:00:00Z,26.4679,-82.0631,8.74,1111122 
SCCF RECON,ioos:station:SCCF:11:1,2011-04-03T03:00:00Z,26.4679,-82.0631,10.52,1111122 
SCCF RECON,ioos:station:SCCF:11:1,2011-04-03T04:00:00Z,26.4679,-82.0631,10.71,1111122 
SCCF RECON,ioos:station:SCCF:11:1,2011-04-03T05:00:00Z,26.4679,-82.0631,10.1,1111122 
SCCF RECON,ioos:station:SCCF:11:1,2011-04-03T06:00:00Z,26.4679,-82.0631,9.25,1111122 
SCCF RECON,ioos:station:SCCF:11:1,2011-04-03T07:00:00Z,26.4679,-82.0631,9.26,1111122 
SCCF RECON,ioos:station:SCCF:11:1,2011-04-03T08:00:00Z,26.4679,-82.0631,7.87,1111122 
SCCF RECON,ioos:station:SCCF:11:1,2011-04-03T09:00:00Z,26.4679,-82.0631,7.2,1111122 
SCCF RECON,ioos:station:SCCF:11:1,2011-04-03T10:00:00Z,26.4679,-82.0631,6.96,1111122 
SCCF RECON,ioos:station:SCCF:11:1,2011-04-03T11:00:00Z,26.4679,-82.0631,6.65,1111122 
SCCF RECON,ioos:station:SCCF:11:1,2011-04-03T12:00:00Z,26.4679,-82.0631,7.5,1111122 
SCCF RECON,ioos:station:SCCF:11:1,2011-04-03T13:00:00Z,26.4679,-82.0631,7.93,1111122 
SCCF RECON,ioos:station:SCCF:11:1,2011-04-03T14:00:00Z,26.4679,-82.0631,16.28,1111122 
SCCF RECON,ioos:station:SCCF:11:1,2011-04-03T15:00:00Z,26.4679,-82.0631,17.84,1111122 
SCCF RECON,ioos:station:SCCF:11:1,2011-04-03T16:00:00Z,26.4679,-82.0631,13.55,1111122 
SCCF RECON,ioos:station:SCCF:11:1,2011-04-03T17:00:00Z,26.4679,-82.0631,10.66,1111122 
SCCF RECON,ioos:station:SCCF:11:1,2011-04-03T18:00:00Z,26.4679,-82.0631,9.41,1111122 
SCCF RECON,ioos:station:SCCF:11:1,2011-04-03T19:00:00Z,26.4679,-82.0631,7.27,1111122 
SCCF RECON,ioos:station:SCCF:11:1,2011-04-03T20:00:00Z,26.4679,-82.0631,6.96,1111122 
SCCF RECON,ioos:station:SCCF:11:1,2011-04-03T21:00:00Z,26.4679,-82.0631,8.12,1111122 
SCCF RECON,ioos:station:SCCF:11:1,2011-04-03T22:00:00Z,26.4679,-82.0631,7.96,1111122 
SCCF RECON,ioos:station:SCCF:11:1,2011-04-03T23:00:00Z,26.4679,-82.0631,8.02,1111122 
SCCF RECON,ioos:station:SCCF:11:1,2011-04-04T00:00:00Z,26.4679,-82.0631,8.36,1111122 
SCCF RECON,ioos:station:SCCF:11:1,2011-04-04T01:00:00Z,26.4679,-82.0631,7.44,1111122 
SCCF RECON,ioos:station:SCCF:11:1,2011-04-04T02:00:00Z,26.4679,-82.0631,9.62,1111122 
SCCF RECON,ioos:station:SCCF:11:1,2011-04-04T03:00:00Z,26.4679,-82.0631,11.68,1111122 
SCCF RECON,ioos:station:SCCF:11:1,2011-04-04T04:00:00Z,26.4679,-82.0631,11.61,1111122 
SCCF RECON,ioos:station:SCCF:11:1,2011-04-04T05:00:00Z,26.4679,-82.0631,10.48,1111122 
SCCF RECON,ioos:station:SCCF:11:1,2011-04-04T06:00:00Z,26.4679,-82.0631,10.77,1111122 
SCCF RECON,ioos:station:SCCF:11:1,2011-04-04T07:00:00Z,26.4679,-82.0631,12.62,1111122 
SCCF RECON,ioos:station:SCCF:11:1,2011-04-04T08:00:00Z,26.4679,-82.0631,9.35,1111122 
SCCF RECON,ioos:station:SCCF:11:1,2011-04-04T09:00:00Z,26.4679,-82.0631,9.19,1111122 
SCCF RECON,ioos:station:SCCF:11:1,2011-04-04T10:00:00Z,26.4679,-82.0631,8.62,1111122 
SCCF RECON,ioos:station:SCCF:11:1,2011-04-04T11:00:00Z,26.4679,-82.0631,7.37,1111122 
SCCF RECON,ioos:station:SCCF:11:1,2011-04-04T12:00:00Z,26.4679,-82.0631,7.27,1111122 
SCCF RECON,ioos:station:SCCF:11:1,2011-04-04T13:00:00Z,26.4679,-82.0631,6.95,1111122 
SCCF RECON,ioos:station:SCCF:11:1,2011-04-04T14:00:00Z,26.4679,-82.0631,11.69,1111122 
SCCF RECON,ioos:station:SCCF:11:1,2011-04-04T15:00:00Z,26.4679,-82.0631,14.06,1111122 
SCCF RECON,ioos:station:SCCF:11:1,2011-04-04T16:00:00Z,26.4679,-82.0631,12.39,1111122 
SCCF RECON,ioos:station:SCCF:11:1,2011-04-04T18:00:00Z,26.4679,-82.0631,11.52,1111122 
SCCF RECON,ioos:station:SCCF:11:1,2011-04-04T19:00:00Z,26.4679,-82.0631,8.45,1111122 
SCCF RECON,ioos:station:SCCF:11:1,2011-04-04T20:00:00Z,26.4679,-82.0631,6.12,1111122 
SCCF RECON,ioos:station:SCCF:11:1,2011-04-04T21:00:00Z,26.4679,-82.0631,7.39,1111122 
SCCF RECON,ioos:station:SCCF:11:1,2011-04-04T22:00:00Z,26.4679,-82.0631,9.12,1111122 
SCCF RECON,ioos:station:SCCF:11:1,2011-04-04T23:00:00Z,26.4679,-82.0631,10.03,1111122 
SCCF RECON,ioos:station:SCCF:11:1,2011-04-05T00:00:00Z,26.4679,-82.0631,11.52,1111122 
SCCF RECON,ioos:station:SCCF:11:1,2011-04-05T01:00:00Z,26.4679,-82.0631,10.75,1111122 
SCCF RECON,ioos:station:SCCF:11:1,2011-04-05T02:00:00Z,26.4679,-82.0631,8.37,1111122 
SCCF RECON,ioos:station:SCCF:11:1,2011-04-05T03:00:00Z,26.4679,-82.0631,15.26,1111122 
SCCF RECON,ioos:station:SCCF:11:1,2011-04-05T04:00:00Z,26.4679,-82.0631,18.52,1111122 
SCCF RECON,ioos:station:SCCF:11:1,2011-04-05T05:00:00Z,26.4679,-82.0631,17.74,1111122 
SCCF RECON,ioos:station:SCCF:11:1,2011-04-05T06:00:00Z,26.4679,-82.0631,13.49,1111122 
SCCF RECON,ioos:station:SCCF:11:1,2011-04-05T07:00:00Z,26.4679,-82.0631,9.08,1111122 
SCCF RECON,ioos:station:SCCF:11:1,2011-04-05T08:00:00Z,26.4679,-82.0631,11.81,1111122 
SCCF RECON,ioos:station:SCCF:11:1,2011-04-05T09:00:00Z,26.4679,-82.0631,10.44,1111122 
SCCF RECON,ioos:station:SCCF:11:1,2011-04-05T10:00:00Z,26.4679,-82.0631,8.93,1111122 
SCCF RECON,ioos:station:SCCF:11:1,2011-04-05T11:00:00Z,26.4679,-82.0631,9.14,1111122 
SCCF RECON,ioos:station:SCCF:11:1,2011-04-05T12:00:00Z,26.4679,-82.0631,7.15,1111122 
SCCF RECON,ioos:station:SCCF:11:1,2011-04-05T13:00:00Z,26.4679,-82.0631,6.48,1111122 
SCCF RECON,ioos:station:SCCF:11:1,2011-04-05T14:00:00Z,26.4679,-82.0631,7.31,1111122 
SCCF RECON,ioos:station:SCCF:11:1,2011-04-05T15:00:00Z,26.4679,-82.0631,13.29,1111122 
SCCF RECON,ioos:station:SCCF:11:1,2011-04-05T16:00:00Z,26.4679,-82.0631,14.24,1111122 
SCCF RECON,ioos:station:SCCF:11:1,2011-04-05T17:00:00Z,26.4679,-82.0631,13.93,1111122 
SCCF RECON,ioos:station:SCCF:11:1,2011-04-05T18:00:00Z,26.4679,-82.0631,13.88,1111122 
SCCF RECON,ioos:station:SCCF:11:1,2011-04-05T19:00:00Z,26.4679,-82.0631,11.02,1111122 
SCCF RECON,ioos:station:SCCF:11:1,2011-04-05T20:00:00Z,26.4679,-82.0631,10.59,1111122 
SCCF RECON,ioos:station:SCCF:11:1,2011-04-05T21:00:00Z,26.4679,-82.0631,10.77,1111122 
SCCF RECON,ioos:station:SCCF:11:1,2011-04-05T22:00:00Z,26.4679,-82.0631,9.45,1111122 
SCCF RECON,ioos:station:SCCF:11:1,2011-04-05T23:00:00Z,26.4679,-82.0631,9.26,1111122 
SCCF RECON,ioos:station:SCCF:11:1,2011-04-06T00:00:00Z,26.4679,-82.0631,9.78,1111122 
SCCF RECON,ioos:station:SCCF:11:1,2011-04-06T01:00:00Z,26.4679,-82.0631,10.39,1111122 
SCCF RECON,ioos:station:SCCF:11:1,2011-04-06T02:00:00Z,26.4679,-82.0631,11.27,1111122 
SCCF RECON,ioos:station:SCCF:11:1,2011-04-06T03:00:00Z,26.4679,-82.0631,10.52,1111122 
SCCF RECON,ioos:station:SCCF:11:1,2011-04-06T04:00:00Z,26.4679,-82.0631,8.2,1111122 
SCCF RECON,ioos:station:SCCF:11:1,2011-04-06T05:00:00Z,26.4679,-82.0631,12.55,1111122 
SCCF RECON,ioos:station:SCCF:11:1,2011-04-06T06:00:00Z,26.4679,-82.0631,20.9,1111122 
SCCF RECON,ioos:station:SCCF:11:1,2011-04-06T07:00:00Z,26.4679,-82.0631,12.32,1111122 
SCCF RECON,ioos:station:SCCF:11:1,2011-04-06T08:00:00Z,26.4679,-82.0631,10.97,1111122 
SCCF RECON,ioos:station:SCCF:11:1,2011-04-06T09:00:00Z,26.4679,-82.0631,8.72,1111122 
SCCF RECON,ioos:station:SCCF:11:1,2011-04-06T10:00:00Z,26.4679,-82.0631,11.02,1111122 
SCCF RECON,ioos:station:SCCF:11:1,2011-04-06T11:00:00Z,26.4679,-82.0631,9.88,1111122 
SCCF RECON,ioos:station:SCCF:11:1,2011-04-06T12:00:00Z,26.4679,-82.0631,8.55,1111122 
SCCF RECON,ioos:station:SCCF:11:1,2011-04-06T13:00:00Z,26.4679,-82.0631,8.36,1111122 
SCCF RECON,ioos:station:SCCF:11:1,2011-04-06T14:00:00Z,26.4679,-82.0631,10.83,1111122 
SCCF RECON,ioos:station:SCCF:11:1,2011-04-06T15:00:00Z,26.4679,-82.0631,15.31,1111122 
SCCF RECON,ioos:station:SCCF:11:1,2011-04-06T16:00:00Z,26.4679,-82.0631,11.66,1111122 
SCCF RECON,ioos:station:SCCF:11:1,2011-04-06T17:00:00Z,26.4679,-82.0631,11.49,1111122 
SCCF RECON,ioos:station:SCCF:11:1,2011-04-06T18:00:00Z,26.4679,-82.0631,10.17,1111122 
SCCF RECON,ioos:station:SCCF:11:1,2011-04-06T19:00:00Z,26.4679,-82.0631,9.25,1111122 
SCCF RECON,ioos:station:SCCF:11:1,2011-04-06T20:00:00Z,26.4679,-82.0631,7.46,1111122 
SCCF RECON,ioos:station:SCCF:11:1,2011-04-06T21:00:00Z,26.4679,-82.0631,8.15,1111122 
SCCF RECON,ioos:station:SCCF:11:1,2011-04-06T22:00:00Z,26.4679,-82.0631,9.71,1111122 
SCCF RECON,ioos:station:SCCF:11:1,2011-04-06T23:00:00Z,26.4679,-82.0631,8.72,1111122 
SCCF RECON,ioos:station:SCCF:11:1,2011-04-07T00:00:00Z,26.4679,-82.0631,9.63,1111122 
SCCF RECON,ioos:station:SCCF:11:1,2011-04-07T01:00:00Z,26.4679,-82.0631,10.89,1111122 
SCCF RECON,ioos:station:SCCF:11:1,2011-04-07T02:00:00Z,26.4679,-82.0631,10.97,1111122 
SCCF RECON,ioos:station:SCCF:11:1,2011-04-07T03:00:00Z,26.4679,-82.0631,9.63,1111122 
SCCF RECON,ioos:station:SCCF:11:1,2011-04-07T04:00:00Z,26.4679,-82.0631,13.41,1111122 
SCCF RECON,ioos:station:SCCF:11:1,2011-04-07T05:00:00Z,26.4679,-82.0631,14.6,1111122 
SCCF RECON,ioos:station:SCCF:11:1,2011-04-07T06:00:00Z,26.4679,-82.0631,12.81,1111122 
SCCF RECON,ioos:station:SCCF:11:1,2011-04-07T07:00:00Z,26.4679,-82.0631,11.6,1111122 
SCCF RECON,ioos:station:SCCF:11:1,2011-04-07T08:00:00Z,26.4679,-82.0631,10.04,1111122 
SCCF RECON,ioos:station:SCCF:11:1,2011-04-07T09:00:00Z,26.4679,-82.0631,9.84,1111122 
SCCF RECON,ioos:station:SCCF:11:1,2011-04-07T10:00:00Z,26.4679,-82.0631,12.16,1111122 
SCCF RECON,ioos:station:SCCF:11:1,2011-04-07T11:00:00Z,26.4679,-82.0631,8.82,1111122 
SCCF RECON,ioos:station:SCCF:11:1,2011-04-07T12:00:00Z,26.4679,-82.0631,8.36,1111122 
SCCF RECON,ioos:station:SCCF:11:1,2011-04-07T13:00:00Z,26.4679,-82.0631,7.61,1111122 
SCCF RECON,ioos:station:SCCF:11:1,2011-04-07T14:00:00Z,26.4679,-82.0631,7.24,1111122 
SCCF RECON,ioos:station:SCCF:11:1,2011-04-07T15:00:00Z,26.4679,-82.0631,12.2,1111122 
SCCF RECON,ioos:station:SCCF:11:1,2011-04-07T16:00:00Z,26.4679,-82.0631,14.16,1111122 
SCCF RECON,ioos:station:SCCF:11:1,2011-04-07T17:00:00Z,26.4679,-82.0631,11.58,1111122 
SCCF RECON,ioos:station:SCCF:11:1,2011-04-07T18:00:00Z,26.4679,-82.0631,10.15,1111122 
SCCF RECON,ioos:station:SCCF:11:1,2011-04-07T19:00:00Z,26.4679,-82.0631,8.13,1111122 
SCCF RECON,ioos:station:SCCF:11:1,2011-04-07T20:00:00Z,26.4679,-82.0631,7.46,1111122 
SCCF RECON,ioos:station:SCCF:11:1,2011-04-07T21:00:00Z,26.4679,-82.0631,5.8,1111122 
SCCF RECON,ioos:station:SCCF:11:1,2011-04-07T22:00:00Z,26.4679,-82.0631,7.01,1111122 
SCCF RECON,ioos:station:SCCF:11:1,2011-04-07T23:00:00Z,26.4679,-82.0631,8.27,1111122 
SCCF RECON,ioos:station:SCCF:11:1,2011-04-08T00:00:00Z,26.4679,-82.0631,9.1,1111122 
SCCF RECON,ioos:station:SCCF:11:1,2011-04-08T01:00:00Z,26.4679,-82.0631,9.66,1111122 
SCCF RECON,ioos:station:SCCF:11:1,2011-04-08T02:00:00Z,26.4679,-82.0631,9.51,1111122 
SCCF RECON,ioos:station:SCCF:11:1,2011-04-08T03:00:00Z,26.4679,-82.0631,9.5,1111122 
SCCF RECON,ioos:station:SCCF:11:1,2011-04-08T04:00:00Z,26.4679,-82.0631,8.11,1111122 
SCCF RECON,ioos:station:SCCF:11:1,2011-04-08T05:00:00Z,26.4679,-82.0631,11.11,1111122 
SCCF RECON,ioos:station:SCCF:11:1,2011-04-08T06:00:00Z,26.4679,-82.0631,8.9,1111122 
SCCF RECON,ioos:station:SCCF:11:1,2011-04-08T07:00:00Z,26.4679,-82.0631,9.65,1111122 
SCCF RECON,ioos:station:SCCF:11:1,2011-04-08T08:00:00Z,26.4679,-82.0631,9.11,1111122 
SCCF RECON,ioos:station:SCCF:11:1,2011-04-08T09:00:00Z,26.4679,-82.0631,9.52,1111122 
SCCF RECON,ioos:station:SCCF:11:1,2011-04-08T10:00:00Z,26.4679,-82.0631,9.96,1111122 
SCCF RECON,ioos:station:SCCF:11:1,2011-04-08T11:00:00Z,26.4679,-82.0631,8.09,1111122 
SCCF RECON,ioos:station:SCCF:11:1,2011-04-08T12:00:00Z,26.4679,-82.0631,8.42,1111122 
SCCF RECON,ioos:station:SCCF:11:1,2011-04-08T13:00:00Z,26.4679,-82.0631,7.06,1111122 
SCCF RECON,ioos:station:SCCF:11:1,2011-04-08T14:00:00Z,26.4679,-82.0631,6.83,1111122 
SCCF RECON,ioos:station:SCCF:11:1,2011-04-08T15:00:00Z,26.4679,-82.0631,6.78,1111122 
SCCF RECON,ioos:station:SCCF:11:1,2011-04-08T16:00:00Z,26.4679,-82.0631,5.29,1111122 
SCCF RECON,ioos:station:SCCF:11:1,2011-04-08T17:00:00Z,26.4679,-82.0631,5.71,1111122 
SCCF RECON,ioos:station:SCCF:11:1,2011-04-08T18:00:00Z,26.4679,-82.0631,6.36,1111122 
SCCF RECON,ioos:station:SCCF:11:1,2011-04-08T19:00:00Z,26.4679,-82.0631,7.74,1111122 
SCCF RECON,ioos:station:SCCF:11:1,2011-04-08T20:00:00Z,26.4679,-82.0631,4.92,1111122 
SCCF RECON,ioos:station:SCCF:11:1,2011-04-08T21:00:00Z,26.4679,-82.0631,4.33,1111122 
SCCF RECON,ioos:station:SCCF:11:1,2011-04-08T22:00:00Z,26.4679,-82.0631,5.18,1111122 
SCCF RECON,ioos:station:SCCF:11:1,2011-04-08T23:00:00Z,26.4679,-82.0631,6.53,1111122 
SCCF RECON,ioos:station:SCCF:11:1,2011-04-09T00:00:00Z,26.4679,-82.0631,7.66,1111122 
SCCF RECON,ioos:station:SCCF:11:1,2011-04-09T01:00:00Z,26.4679,-82.0631,8.14,1111122 
SCCF RECON,ioos:station:SCCF:11:1,2011-04-09T02:00:00Z,26.4679,-82.0631,8.64,1111122 
SCCF RECON,ioos:station:SCCF:11:1,2011-04-09T03:00:00Z,26.4679,-82.0631,8.26,1111122 
SCCF RECON,ioos:station:SCCF:11:1,2011-04-09T04:00:00Z,26.4679,-82.0631,7.88,1111122 
SCCF RECON,ioos:station:SCCF:11:1,2011-04-09T05:00:00Z,26.4679,-82.0631,7.16,1111122 
SCCF RECON,ioos:station:SCCF:11:1,2011-04-09T06:00:00Z,26.4679,-82.0631,8.69,1111122 
SCCF RECON,ioos:station:SCCF:11:1,2011-04-09T07:00:00Z,26.4679,-82.0631,8.58,1111122 
SCCF RECON,ioos:station:SCCF:11:1,2011-04-09T08:00:00Z,26.4679,-82.0631,8.92,1111122 
SCCF RECON,ioos:station:SCCF:11:1,2011-04-09T09:00:00Z,26.4679,-82.0631,7.85,1111122 
SCCF RECON,ioos:station:SCCF:11:1,2011-04-09T10:00:00Z,26.4679,-82.0631,8.42,1111122 
SCCF RECON,ioos:station:SCCF:11:1,2011-04-09T11:00:00Z,26.4679,-82.0631,7.49,1111122 
SCCF RECON,ioos:station:SCCF:11:1,2011-04-09T12:00:00Z,26.4679,-82.0631,7.26,1111122 
SCCF RECON,ioos:station:SCCF:11:1,2011-04-09T13:00:00Z,26.4679,-82.0631,7.52,1111122 
SCCF RECON,ioos:station:SCCF:11:1,2011-04-09T14:00:00Z,26.4679,-82.0631,7.64,1111122 
SCCF RECON,ioos:station:SCCF:11:1,2011-04-09T15:00:00Z,26.4679,-82.0631,7.29,1111122 
SCCF RECON,ioos:station:SCCF:11:1,2011-04-09T16:00:00Z,26.4679,-82.0631,6.69,1111122 
SCCF RECON,ioos:station:SCCF:11:1,2011-04-09T17:00:00Z,26.4679,-82.0631,5.96,1111122 
SCCF RECON,ioos:station:SCCF:11:1,2011-04-09T18:00:00Z,26.4679,-82.0631,6.11,1111122 
SCCF RECON,ioos:station:SCCF:11:1,2011-04-09T19:00:00Z,26.4679,-82.0631,6.18,1111122 
SCCF RECON,ioos:station:SCCF:11:1,2011-04-09T20:00:00Z,26.4679,-82.0631,5.14,1111122 
SCCF RECON,ioos:station:SCCF:11:1,2011-04-09T21:00:00Z,26.4679,-82.0631,4.53,1111122 
SCCF RECON,ioos:station:SCCF:11:1,2011-04-09T22:00:00Z,26.4679,-82.0631,5.22,1111122 
SCCF RECON,ioos:station:SCCF:11:1,2011-04-09T23:00:00Z,26.4679,-82.0631,6.0,1111122 
SCCF RECON,ioos:station:SCCF:11:1,2011-04-10T00:00:00Z,26.4679,-82.0631,7.02,1111122 
SCCF RECON,ioos:station:SCCF:11:1,2011-04-10T01:00:00Z,26.4679,-82.0631,7.87,1111122 
SCCF RECON,ioos:station:SCCF:11:1,2011-04-10T02:00:00Z,26.4679,-82.0631,7.81,1111122 
SCCF RECON,ioos:station:SCCF:11:1,2011-04-10T03:00:00Z,26.4679,-82.0631,8.1,1111122 
SCCF RECON,ioos:station:SCCF:11:1,2011-04-10T04:00:00Z,26.4679,-82.0631,7.6,1111122 
SCCF RECON,ioos:station:SCCF:11:1,2011-04-10T05:00:00Z,26.4679,-82.0631,7.37,1111122 
SCCF RECON,ioos:station:SCCF:11:1,2011-04-10T06:00:00Z,26.4679,-82.0631,6.17,1111122 
SCCF RECON,ioos:station:SCCF:11:1,2011-04-10T07:00:00Z,26.4679,-82.0631,8.05,1111122 
SCCF RECON,ioos:station:SCCF:11:1,2011-04-10T08:00:00Z,26.4679,-82.0631,8.87,1111122 
SCCF RECON,ioos:station:SCCF:11:1,2011-04-10T09:00:00Z,26.4679,-82.0631,8.37,1111122 
SCCF RECON,ioos:station:SCCF:11:1,2011-04-10T10:00:00Z,26.4679,-82.0631,7.16,1111122 
SCCF RECON,ioos:station:SCCF:11:1,2011-04-10T11:00:00Z,26.4679,-82.0631,7.23,1111122 
SCCF RECON,ioos:station:SCCF:11:1,2011-04-10T12:00:00Z,26.4679,-82.0631,8.38,1111122 
SCCF RECON,ioos:station:SCCF:11:1,2011-04-10T13:00:00Z,26.4679,-82.0631,7.93,1111122 
SCCF RECON,ioos:station:SCCF:11:1,2011-04-10T14:00:00Z,26.4679,-82.0631,9.62,1111122 
SCCF RECON,ioos:station:SCCF:11:1,2011-04-10T15:00:00Z,26.4679,-82.0631,11.28,1111122 
SCCF RECON,ioos:station:SCCF:11:1,2011-04-10T16:00:00Z,26.4679,-82.0631,7.25,1111122 
SCCF RECON,ioos:station:SCCF:11:1,2011-04-10T17:00:00Z,26.4679,-82.0631,7.68,1111122 
SCCF RECON,ioos:station:SCCF:11:1,2011-04-10T18:00:00Z,26.4679,-82.0631,6.45,1111122 
SCCF RECON,ioos:station:SCCF:11:1,2011-04-10T19:00:00Z,26.4679,-82.0631,7.0,1111122 
SCCF RECON,ioos:station:SCCF:11:1,2011-04-10T20:00:00Z,26.4679,-82.0631,7.39,1111122 
SCCF RECON,ioos:station:SCCF:11:1,2011-04-10T21:00:00Z,26.4679,-82.0631,7.5,1111122 
SCCF RECON,ioos:station:SCCF:11:1,2011-04-10T22:00:00Z,26.4679,-82.0631,6.91,1111122 
SCCF RECON,ioos:station:SCCF:11:1,2011-04-10T23:00:00Z,26.4679,-82.0631,6.05,1111122 
SCCF RECON,ioos:station:SCCF:11:1,2011-04-11T00:00:00Z,26.4679,-82.0631,6.14,1111122 
SCCF RECON,ioos:station:SCCF:11:1,2011-04-11T01:00:00Z,26.4679,-82.0631,7.46,1111122 
SCCF RECON,ioos:station:SCCF:11:1,2011-04-11T02:00:00Z,26.4679,-82.0631,7.32,1111122 
SCCF RECON,ioos:station:SCCF:11:1,2011-04-11T03:00:00Z,26.4679,-82.0631,7.18,1111122 
SCCF RECON,ioos:station:SCCF:11:1,2011-04-11T04:00:00Z,26.4679,-82.0631,7.21,1111122 
SCCF RECON,ioos:station:SCCF:11:1,2011-04-11T05:00:00Z,26.4679,-82.0631,6.86,1111122 
SCCF RECON,ioos:station:SCCF:11:1,2011-04-11T06:00:00Z,26.4679,-82.0631,6.85,1111122 
SCCF RECON,ioos:station:SCCF:11:1,2011-04-11T07:00:00Z,26.4679,-82.0631,5.84,1111122 
SCCF RECON,ioos:station:SCCF:11:1,2011-04-11T08:00:00Z,26.4679,-82.0631,8.13,1111122 
SCCF RECON,ioos:station:SCCF:11:1,2011-04-11T09:00:00Z,26.4679,-82.0631,8.36,1111122 
SCCF RECON,ioos:station:SCCF:11:1,2011-04-11T10:00:00Z,26.4679,-82.0631,8.32,1111122 
SCCF RECON,ioos:station:SCCF:11:1,2011-04-11T11:00:00Z,26.4679,-82.0631,9.1,1111122 
SCCF RECON,ioos:station:SCCF:11:1,2011-04-11T12:00:00Z,26.4679,-82.0631,10.61,1111122 
SCCF RECON,ioos:station:SCCF:11:1,2011-04-11T13:00:00Z,26.4679,-82.0631,9.05,1111122 
SCCF RECON,ioos:station:SCCF:11:1,2011-04-11T14:00:00Z,26.4679,-82.0631,8.9,1111122 
SCCF RECON,ioos:station:SCCF:11:1,2011-04-11T15:00:00Z,26.4679,-82.0631,11.42,1111122 
SCCF RECON,ioos:station:SCCF:11:1,2011-04-11T16:00:00Z,26.4679,-82.0631,9.68,1111122 
SCCF RECON,ioos:station:SCCF:11:1,2011-04-11T17:00:00Z,26.4679,-82.0631,5.92,1111122 
SCCF RECON,ioos:station:SCCF:11:1,2011-04-11T18:00:00Z,26.4679,-82.0631,21.77,1111122 
SCCF RECON,ioos:station:SCCF:11:1,2011-04-11T19:00:00Z,26.4679,-82.0631,10.02,1111122 
SCCF RECON,ioos:station:SCCF:11:1,2011-04-11T20:00:00Z,26.4679,-82.0631,10.14,1111122 
SCCF RECON,ioos:station:SCCF:11:1,2011-04-11T21:00:00Z,26.4679,-82.0631,8.79,1111122 
SCCF RECON,ioos:station:SCCF:11:1,2011-04-11T22:00:00Z,26.4679,-82.0631,7.25,1111122 
SCCF RECON,ioos:station:SCCF:11:1,2011-04-11T23:00:00Z,26.4679,-82.0631,8.71,1111122 
SCCF RECON,ioos:station:SCCF:11:1,2011-04-12T00:00:00Z,26.4679,-82.0631,5.91,1111122 
SCCF RECON,ioos:station:SCCF:11:1,2011-04-12T01:00:00Z,26.4679,-82.0631,7.71,1111122 
SCCF RECON,ioos:station:SCCF:11:1,2011-04-12T02:00:00Z,26.4679,-82.0631,6.63,1111122 
SCCF RECON,ioos:station:SCCF:11:1,2011-04-12T03:00:00Z,26.4679,-82.0631,6.87,1111122 
SCCF RECON,ioos:station:SCCF:11:1,2011-04-12T04:00:00Z,26.4679,-82.0631,7.11,1111122 
SCCF RECON,ioos:station:SCCF:11:1,2011-04-12T05:00:00Z,26.4679,-82.0631,7.29,1111122 
SCCF RECON,ioos:station:SCCF:11:1,2011-04-12T06:00:00Z,26.4679,-82.0631,6.87,1111122 
SCCF RECON,ioos:station:SCCF:11:1,2011-04-12T07:00:00Z,26.4679,-82.0631,6.97,1111122 
SCCF RECON,ioos:station:SCCF:11:1,2011-04-12T08:00:00Z,26.4679,-82.0631,6.8,1111122 
SCCF RECON,ioos:station:SCCF:11:1,2011-04-12T09:00:00Z,26.4679,-82.0631,7.33,1111122 
SCCF RECON,ioos:station:SCCF:11:1,2011-04-12T10:00:00Z,26.4679,-82.0631,7.36,1111122 
SCCF RECON,ioos:station:SCCF:11:1,2011-04-12T11:00:00Z,26.4679,-82.0631,8.2,1111122 
SCCF RECON,ioos:station:SCCF:11:1,2011-04-12T12:00:00Z,26.4679,-82.0631,7.55,1111122 
SCCF RECON,ioos:station:SCCF:11:1,2011-04-12T13:00:00Z,26.4679,-82.0631,6.1,1111122 